#timestamp,LO_Frequency,Hit,StdDev 
1656097215.4,286046999.1,N
1656097235.3,286046998.8,N
1656097255.1,286046999.3,N
1656097275.9,286046998.5,N
1656097295.7,286046998.3,N
1656097315.5,286046998.4,N
1656097335.4,286046998.4,N
1656097355.2,286046998.2,N
1656097375.0,286047000.5,N
1656097375.9,286047000.5,N
1656097395.8,286047000.8,N
1656097415.6,286047002.8,N
1656097435.5,286047002.5,N
1656097455.3,286047000.4,N
1656097475.1,286047001.1,N
1656097495.9,286047001.0,N
1656097515.7,286047000.7,N
1656097535.5,286046998.2,N
1656097555.4,286046998.3,N
1656097575.2,286046998.5,N
1656097595.1,286046998.5,N
1656097596.0,286046998.5,N
1656097615.8,286046998.7,N
1656097635.6,286046998.8,N
1656097655.5,286047001.1,N
1656097675.3,286046998.7,N
1656097695.1,286047001.0,N
1656097715.9,286047001.2,N
1656097735.7,286047000.0,N
1656097755.6,286047000.4,N
1656097775.4,286047001.2,N
1656097795.2,286047001.1,N
1656097815.1,286047000.7,N
1656097816.0,286047000.7,N
1656097835.8,286047000.8,N
1656097855.6,286046998.3,N
1656097875.5,286047001.2,N
1656097895.3,286046999.3,N
1656097915.2,286046996.5,N
1656097935.9,286046998.4,N
1656097955.7,286046999.0,N
1656097975.6,286046996.5,N
1656097995.4,286046999.1,N
1656098015.2,286046999.5,N
1656098035.1,286046999.3,N
1656098036.0,286046999.3,N
1656098055.8,286046998.3,N
1656098075.7,286046999.2,N
1656098095.5,286046998.7,N
1656098115.3,286046999.3,N
1656098135.2,286046998.3,N
1656098155.0,286047000.7,N
1656098155.9,286047000.7,N
1656098175.8,286046998.4,N
1656098195.6,286046999.3,N
1656098215.4,286046996.5,N
1656098235.3,286046998.8,N
1656098255.1,286046999.0,N
1656098275.8,286046999.2,N
1656098295.7,286046999.1,N
1656098315.5,286046999.6,N
1656098335.4,286046999.4,N
1656098355.2,286046998.3,N
1656098375.0,286046996.5,Y
1656098375.9,286046996.5,P
1656098395.8,286046999.1,N
1656098415.6,286046999.5,N
1656098435.5,286046996.9,N
1656098455.3,286046999.4,N
1656098475.1,286046998.7,N
1656098495.9,286046998.4,N
1656098515.7,286046999.1,N
1656098535.6,286046999.5,N
1656098555.4,286046999.2,N
1656098575.2,286046999.1,N
1656098595.1,286046999.5,N
1656098596.0,286046999.5,N
1656098615.8,286046998.8,N
1656098635.6,286046998.9,N
1656098655.5,286047001.1,N
1656098675.3,286047001.2,N
1656098695.2,286046998.7,N
1656098715.9,286046998.3,N
1656098735.7,286046998.5,N
1656098755.6,286046999.7,N
1656098775.4,286047000.1,N
1656098795.2,286047000.3,N
1656098815.1,286047000.1,N
1656098816.0,286047000.1,N
1656098835.8,286047001.1,N
1656098855.7,286047000.0,N
1656098875.5,286046998.2,N
1656098895.4,286046998.4,N
1656098915.2,286046998.1,N
1656098935.0,286046998.8,N
1656098935.9,286046998.8,N
1656098955.8,286046998.8,N
1656098975.6,286046999.5,N
1656098995.4,286046997.2,Y
1656099015.3,286046996.8,P
1656099035.1,286046997.8,N
1656099055.9,286046996.8,P
1656099075.7,286046997.4,N
1656099095.5,286046997.4,N
1656099115.4,286046998.0,N
1656099135.2,286046997.4,Y
1656099155.1,286047001.0,P
1656099156.0,286047001.0,N
1656099175.8,286047001.1,N
1656099195.6,286047000.3,N
1656099215.5,286047002.2,N
1656099235.3,286047002.0,N
1656099255.1,286047002.1,N
1656099275.9,286047001.4,N
1656099295.7,286047004.2,Y
1656099315.6,286047002.1,P
1656099335.4,286047002.3,P
1656099355.2,286047001.6,N
1656099375.1,286047000.2,N
1656099376.0,286047000.2,N
1656099395.8,286047000.2,N
1656099415.7,286047001.8,N
1656099435.5,286047001.3,N
1656099455.3,286047004.1,Y
1656099475.2,286047002.8,P
1656099495.0,286047002.7,P
1656099495.9,286047002.7,P
1656099515.8,286047002.5,Y
1656099535.6,286047001.1,P
1656099555.4,286046998.1,P
1656099575.3,286047000.7,N
1656099595.1,286046998.5,N
1656099615.8,286047001.0,N
1656099635.7,286047001.0,N
1656099655.5,286047000.7,N
1656099675.4,286047000.7,N
1656099695.2,286046998.6,N
1656099715.0,286047000.5,N
1656099715.9,286047000.5,N
1656099735.8,286046999.8,N
1656099755.6,286047000.0,N
1656099775.4,286047000.6,N
1656099825.3,286047000.9,E
1656099835.2,286046998.1,N
1656099855.1,286046998.9,P
1656099856.0,286046998.9,N
1656099875.8,286047000.7,N
1656099895.6,286047000.6,N
1656099915.5,286046998.2,N
1656099935.3,286047000.5,N
1656099955.2,286047000.9,N
1656099975.0,286047000.9,N
1656099975.9,286047000.9,N
1656099995.8,286047000.7,N
1656100015.6,286047001.1,N
1656100035.4,286046998.3,N
1656100055.3,286046998.5,N
1656100075.1,286047001.1,N
1656100095.9,286046999.9,N
1656100115.7,286046999.8,N
1656100135.5,286046999.8,N
1656100155.4,286047000.2,N
1656100175.2,286046999.8,N
1656100195.1,286047002.7,N
1656100196.0,286047002.7,N
1656100215.8,286047002.2,N
1656100235.7,286047002.8,N
1656100255.5,286047002.8,N
1656100275.3,286046999.8,N
1656100295.2,286047002.6,N
1656100315.0,286047002.8,N
1656100315.9,286047002.8,N
1656100335.8,286046999.7,N
1656100355.6,286047002.4,N
1656100375.5,286047000.2,N
1656100395.3,286046999.7,N
1656100415.1,286046999.8,N
1656100435.9,286047000.2,N
1656100455.7,286047000.2,N
1656100475.6,286047000.6,N
1656100495.4,286047000.3,N
1656100515.2,286047000.1,N
1656100535.1,286047000.1,N
1656100536.0,286047000.1,N
1656100555.8,286046999.8,N
1656100575.7,286046999.8,N
1656100595.5,286046999.9,N
1656100615.4,286047000.3,N
1656100635.2,286047000.6,N
1656100655.0,286046999.9,N
1656100655.9,286046999.9,N
1656100675.8,286047000.4,N
1656100695.6,286047002.3,N
1656100715.5,286047002.0,N
1656100735.3,286047001.9,N
1656100755.1,286047001.4,N
1656100775.9,286047004.4,Y
1656100795.7,286047002.3,P
